| time (UTC) | temp F | wind direction | speed knots | gust knots | rain 1hr in | rain 24hr in | rain mn in | humidity % | barometer mb |
| 20260902104050 | 62 | 206 | 5.2 | 7.8 | 0.00 | 0.00 | 0.00 | 29 | 1022.4 |
| 20260902103546 | 62 | 228 | 7.0 | 9.6 | 0.00 | 0.00 | 0.00 | 29 | 1022.3 |
| 20260902103041 | 62 | 201 | 7.0 | 7.8 | 0.00 | 0.00 | 0.00 | 28 | 1022.6 |
| 20260902102538 | 63 | 218 | 3.5 | 7.8 | 0.00 | 0.00 | 0.00 | 27 | 1022.7 |
| 20260902102034 | 63 | 205 | 4.3 | 9.6 | 0.00 | 0.00 | 0.00 | 27 | 1022.2 |
| 20260902101530 | 63 | 213 | 6.1 | 7.0 | 0.00 | 0.00 | 0.00 | 27 | 1022.4 |
| 20260902101028 | 63 | 241 | 5.2 | 8.7 | 0.00 | 0.00 | 0.00 | 26 | 1022.3 |
| 20260902100528 | 63 | 215 | 7.8 | 9.6 | 0.00 | 0.00 | 0.00 | 26 | 1022.4 |
| 20260902100029 | 64 | 236 | 6.1 | 13.0 | 0.00 | 0.00 | 0.00 | 25 | 1022.3 |
| 20260902095528 | 64 | 240 | 3.5 | 7.8 | 0.00 | 0.00 | 0.00 | 25 | 1022.3 |
| 20260902095027 | 64 | 258 | 3.5 | 9.6 | 0.00 | 0.00 | 0.00 | 24 | 1022.7 |
| 20260902094523 | 64 | 261 | 6.1 | 7.0 | 0.00 | 0.00 | 0.00 | 24 | 1022.3 |
| 20260902094018 | 64 | 243 | 7.8 | 10.4 | 0.00 | 0.00 | 0.00 | 24 | 1022.6 |
| 20260902093513 | 64 | 222 | 10.4 | 11.3 | 0.00 | 0.00 | 0.00 | 25 | 1022.6 |
| 20260902093012 | 64 | 211 | 3.5 | 9.6 | 0.00 | 0.00 | 0.00 | 25 | 1022.4 |
| 20260902092508 | 64 | 219 | 7.0 | 8.7 | 0.00 | 0.00 | 0.00 | 26 | 1022.7 |
| 20260902092003 | 63 | 222 | 4.3 | 7.8 | 0.00 | 0.00 | 0.00 | 26 | 1022.4 |
| 20260902091458 | 63 | 196 | 3.5 | 4.3 | 0.00 | 0.00 | 0.00 | 26 | 1022.3 |
| 20260902090954 | 63 | 216 | 5.2 | 5.2 | 0.00 | 0.00 | 0.00 | 26 | 1022.6 |
| 20260902090449 | 63 | 232 | 3.5 | 7.8 | 0.00 | 0.00 | 0.00 | 27 | 1022.6 |
| 20260902085948 | 63 | 220 | 5.2 | 6.1 | 0.00 | 0.00 | 0.00 | 27 | 1022.8 |
| 20260902085443 | 63 | 204 | 3.5 | 9.6 | 0.00 | 0.00 | 0.00 | 27 | 1022.4 |
| 20260902084939 | 62 | 216 | 4.3 | 7.8 | 0.00 | 0.00 | 0.00 | 27 | 1022.8 |
| 20260902084435 | 63 | 202 | 5.2 | 10.4 | 0.00 | 0.00 | 0.00 | 27 | 1022.7 |
| 20260902083931 | 63 | 215 | 8.7 | 10.4 | 0.00 | 0.00 | 0.00 | 27 | 1022.7 |
| 20260902083430 | 63 | 222 | 5.2 | 8.7 | 0.00 | 0.00 | 0.00 | 27 | 1022.7 |
| 20260902082925 | 63 | 203 | 3.5 | 7.0 | 0.00 | 0.00 | 0.00 | 28 | 1022.9 |
| 20260902082420 | 64 | 240 | 1.7 | 10.4 | 0.00 | 0.00 | 0.00 | 27 | 1022.8 |
| 20260902081917 | 64 | 216 | 6.1 | 7.8 | 0.00 | 0.00 | 0.00 | 29 | 1022.8 |
| 20260902081414 | 63 | 204 | 7.0 | 8.7 | 0.00 | 0.00 | 0.00 | 28 | 1022.9 |
| 20260902080914 | 63 | 231 | 6.1 | 8.7 | 0.00 | 0.00 | 0.00 | 29 | 1022.8 |
| 20260902080410 | 63 | 212 | 5.2 | 6.1 | 0.00 | 0.00 | 0.00 | 31 | 1022.8 |
| 20260902075909 | 63 | 196 | 4.3 | 7.8 | 0.00 | 0.00 | 0.00 | 31 | 1022.8 |
| 20260902075406 | 62 | 170 | 4.3 | 4.3 | 0.00 | 0.00 | 0.00 | 31 | 1022.9 |
| 20260902074901 | 62 | 171 | 4.3 | 4.3 | 0.00 | 0.00 | 0.00 | 31 | 1022.9 |
| 20260902074357 | 62 | 179 | 5.2 | 6.1 | 0.00 | 0.00 | 0.00 | 31 | 1022.8 |
| 20260902073851 | 62 | 218 | 7.0 | 8.7 | 0.00 | 0.00 | 0.00 | 31 | 1022.8 |
| 20260902073348 | 63 | 221 | 3.5 | 6.1 | 0.00 | 0.00 | 0.00 | 32 | 1022.8 |
| 20260902072843 | 63 | 186 | 1.7 | 3.5 | 0.00 | 0.00 | 0.00 | 32 | 1022.9 |
| 20260902072339 | 63 | 215 | 3.5 | 4.3 | 0.00 | 0.00 | 0.00 | 32 | 1023.0 |
| 20260902071835 | 62 | 172 | 4.3 | 5.2 | 0.00 | 0.00 | 0.00 | 33 | 1022.7 |
| 20260902071329 | 63 | 215 | 2.6 | 7.0 | 0.00 | 0.00 | 0.00 | 33 | 1022.8 |
| 20260902070826 | 62 | 211 | 5.2 | 7.8 | 0.00 | 0.00 | 0.00 | 33 | 1022.7 |
| 20260902070326 | 62 | 215 | 5.2 | 7.0 | 0.00 | 0.00 | 0.00 | 34 | 1022.8 |
| 20260902065824 | 62 | 206 | 6.1 | 7.8 | 0.00 | 0.00 | 0.00 | 34 | 1022.4 |
| 20260902065320 | 62 | 212 | 4.3 | 6.1 | 0.00 | 0.00 | 0.00 | 34 | 1022.6 |
| 20260902064815 | 62 | 218 | 6.1 | 6.1 | 0.00 | 0.00 | 0.00 | 34 | 1022.6 |
| 20260902064311 | 62 | 203 | 3.5 | 6.1 | 0.00 | 0.00 | 0.00 | 35 | 1022.7 |
| 20260902063806 | 62 | 217 | 4.3 | 7.0 | 0.00 | 0.00 | 0.00 | 35 | 1022.6 |
| 20260902063301 | 61 | 214 | 4.3 | 7.0 | 0.00 | 0.00 | 0.00 | 35 | 1022.4 |
| 20260902062800 | 61 | 213 | 5.2 | 7.0 | 0.00 | 0.00 | 0.00 | 35 | 1022.7 |
| 20260902062255 | 62 | 219 | 4.3 | 5.2 | 0.00 | 0.00 | 0.00 | 35 | 1022.8 |
| 20260902061755 | 62 | 215 | 4.3 | 7.8 | 0.00 | 0.00 | 0.00 | 34 | 1022.7 |
| 20260902061250 | 63 | 221 | 7.0 | 8.7 | 0.00 | 0.00 | 0.00 | 34 | 1022.8 |
| 20260902060748 | 63 | 216 | 5.2 | 7.0 | 0.00 | 0.00 | 0.00 | 34 | 1022.8 |
| 20260902060242 | 64 | 205 | 6.1 | 7.8 | 0.00 | 0.00 | 0.00 | 33 | 1022.6 |
| 20260902055737 | 64 | 211 | 5.2 | 7.8 | 0.00 | 0.00 | 0.00 | 32 | 1022.8 |
| 20260902055235 | 64 | 212 | 5.2 | 7.8 | 0.00 | 0.00 | 0.00 | 32 | 1022.6 |
| 20260902054735 | 64 | 208 | 5.2 | 7.8 | 0.00 | 0.00 | 0.00 | 32 | 1022.9 |
| 20260902054230 | 64 | 206 | 5.2 | 7.8 | 0.00 | 0.00 | 0.00 | 31 | 1022.6 |
| 20260902053726 | 64 | 223 | 5.2 | 7.8 | 0.00 | 0.00 | 0.00 | 31 | 1023.0 |
| 20260902053225 | 64 | 248 | 4.3 | 5.2 | 0.00 | 0.00 | 0.00 | 30 | 1022.6 |
| 20260902052725 | 64 | 229 | 3.5 | 7.8 | 0.00 | 0.00 | 0.00 | 29 | 1022.7 |
| 20260902052220 | 65 | 236 | 5.2 | 6.1 | 0.00 | 0.00 | 0.00 | 27 | 1022.6 |
| 20260902051719 | 65 | 247 | 3.5 | 4.3 | 0.00 | 0.00 | 0.00 | 26 | 1022.6 |
| 20260902051214 | 66 | 254 | 4.3 | 5.2 | 0.00 | 0.00 | 0.00 | 25 | 1022.7 |
| 20260902050709 | 67 | 261 | 4.3 | 4.3 | 0.00 | 0.00 | 0.00 | 24 | 1022.4 |
| 20260902050204 | 67 | 274 | 1.7 | 3.5 | 0.00 | 0.00 | 0.00 | 23 | 1022.4 |
| 20260902045704 | 67 | 272 | 3.5 | 3.5 | 0.00 | 0.00 | 0.00 | 23 | 1022.3 |
| 20260902045201 | 67 | 265 | 1.7 | 3.5 | 0.00 | 0.00 | 0.00 | 22 | 1022.3 |
| 20260902044655 | 67 | 277 | 2.6 | 3.5 | 0.00 | 0.00 | 0.00 | 22 | 1022.4 |
| 20260902044152 | 67 | 272 | 1.7 | 2.6 | 0.00 | 0.00 | 0.00 | 22 | 1022.4 |
| 20260902043646 | 68 | 269 | 1.7 | 3.5 | 0.00 | 0.00 | 0.00 | 22 | 1022.3 |
| 20260902043142 | 68 | 279 | 1.7 | 4.3 | 0.00 | 0.00 | 0.00 | 21 | 1022.2 |
| 20260902042641 | 69 | 246 | 3.5 | 3.5 | 0.00 | 0.00 | 0.00 | 20 | 1022.0 |
| 20260902042137 | 69 | 273 | 2.6 | 3.5 | 0.00 | 0.00 | 0.00 | 21 | 1022.1 |
| 20260902041636 | 69 | 258 | 2.6 | 4.3 | 0.00 | 0.00 | 0.00 | 20 | 1022.1 |
| 20260902041131 | 69 | 268 | 3.5 | 4.3 | 0.00 | 0.00 | 0.00 | 20 | 1022.0 |
| 20260902040630 | 69 | 281 | 1.7 | 2.6 | 0.00 | 0.00 | 0.00 | 20 | 1022.0 |
| 20260902040126 | 69 | 275 | 1.7 | 2.6 | 0.00 | 0.00 | 0.00 | 19 | 1021.8 |
| 20260902035624 | 69 | 258 | 2.6 | 3.5 | 0.00 | 0.00 | 0.00 | 19 | 1021.8 |
| 20260902035120 | 69 | 105 | 0.9 | 1.7 | 0.00 | 0.00 | 0.00 | 20 | 1021.6 |
| 20260902034619 | 71 | 194 | 1.7 | 1.7 | 0.00 | 0.00 | 0.00 | 19 | 1021.6 |
| 20260902034118 | 71 | 249 | 1.7 | 7.0 | 0.00 | 0.00 | 0.00 | 18 | 1021.4 |
| 20260902033618 | 70 | 212 | 2.6 | 3.5 | 0.00 | 0.00 | 0.00 | 19 | 1021.7 |
| 20260902033113 | 71 | 208 | 1.7 | 7.0 | 0.00 | 0.00 | 0.00 | 19 | 1021.5 |
| 20260902032612 | 71 | 219 | 3.5 | 5.2 | 0.00 | 0.00 | 0.00 | 18 | 1021.1 |
| 20260902032107 | 71 | 251 | 5.2 | 5.2 | 0.00 | 0.00 | 0.00 | 19 | 1021.2 |
| 20260902031607 | 71 | 256 | 2.6 | 4.3 | 0.00 | 0.00 | 0.00 | 19 | 1021.1 |
| 20260902031103 | 71 | 261 | 0.9 | 3.5 | 0.00 | 0.00 | 0.00 | 19 | 1021.0 |
| 20260902030558 | 72 | 267 | 1.7 | 2.6 | 0.00 | 0.00 | 0.00 | 18 | 1020.9 |
| 20260902030058 | 72 | 294 | 2.6 | 4.3 | 0.00 | 0.00 | 0.00 | 18 | 1021.0 |
| 20260902025557 | 72 | 261 | 2.6 | 2.6 | 0.00 | 0.00 | 0.00 | 18 | 1021.0 |
| 20260902025053 | 73 | 201 | 1.7 | 8.7 | 0.00 | 0.00 | 0.00 | 18 | 1021.0 |
| 20260902024549 | 73 | 205 | 6.1 | 9.6 | 0.00 | 0.00 | 0.00 | 18 | 1020.8 |
| 20260902024048 | 73 | 221 | 7.0 | 13.0 | 0.00 | 0.00 | 0.00 | 17 | 1020.6 |
| 20260902023544 | 74 | 206 | 7.8 | 11.3 | 0.00 | 0.00 | 0.00 | 17 | 1020.6 |
| 20260902023039 | 74 | 221 | 10.4 | 14.8 | 0.00 | 0.00 | 0.00 | 17 | 1020.6 |
| 20260902022533 | 74 | 222 | 7.0 | 13.0 | 0.00 | 0.00 | 0.00 | 17 | 1020.6 |
| 20260902022029 | 75 | 220 | 9.6 | 13.0 | 0.00 | 0.00 | 0.00 | 17 | 1020.5 |
| 20260902021524 | 75 | 217 | 7.0 | 11.3 | 0.00 | 0.00 | 0.00 | 17 | 1020.6 |
| 20260902021019 | 75 | 204 | 7.0 | 13.0 | 0.00 | 0.00 | 0.00 | 17 | 1020.6 |
| 20260902020515 | 76 | 226 | 5.2 | 16.5 | 0.00 | 0.00 | 0.00 | 17 | 1020.4 |
| 20260902020011 | 76 | 210 | 8.7 | 17.4 | 0.00 | 0.00 | 0.00 | 17 | 1020.5 |
| 20260902015512 | 76 | 220 | 10.4 | 14.8 | 0.00 | 0.00 | 0.00 | 17 | 1020.4 |
| 20260902015007 | 77 | 219 | 7.0 | 16.5 | 0.00 | 0.00 | 0.00 | 17 | 1020.1 |
| 20260902014503 | 77 | 220 | 5.2 | 16.5 | 0.00 | 0.00 | 0.00 | 17 | 1020.2 |
| 20260902013958 | 78 | 216 | 13.9 | 18.2 | 0.00 | 0.00 | 0.00 | 16 | 1020.1 |
| 20260902013453 | 78 | 235 | 12.2 | 14.8 | 0.00 | 0.00 | 0.00 | 16 | 1020.2 |
| 20260902012948 | 78 | 226 | 7.8 | 16.5 | 0.00 | 0.00 | 0.00 | 15 | 1019.9 |
| 20260902012443 | 79 | 213 | 10.4 | 14.8 | 0.00 | 0.00 | 0.00 | 15 | 1020.2 |
| 20260902011939 | 79 | 236 | 4.3 | 12.2 | 0.00 | 0.00 | 0.00 | 15 | 1020.3 |
| 20260902011434 | 79 | 232 | 10.4 | 15.6 | 0.00 | 0.00 | 0.00 | 15 | 1020.2 |
| 20260902010933 | 79 | 216 | 9.6 | 14.8 | 0.00 | 0.00 | 0.00 | 15 | 1020.1 |
| 20260902010429 | 80 | 217 | 8.7 | 19.1 | 0.00 | 0.00 | 0.00 | 15 | 1020.2 |
| 20260902005928 | 80 | 192 | 6.1 | 18.2 | 0.00 | 0.00 | 0.00 | 15 | 1020.4 |
| 20260902005427 | 80 | 219 | 12.2 | 14.8 | 0.00 | 0.00 | 0.00 | 15 | 1020.4 |
| 20260902004924 | 80 | 226 | 11.3 | 19.1 | 0.00 | 0.00 | 0.00 | 15 | 1020.2 |
| 20260902004423 | 80 | 251 | 9.6 | 20.0 | 0.00 | 0.00 | 0.00 | 14 | 1020.3 |
| 20260902003918 | 81 | 222 | 7.8 | 17.4 | 0.00 | 0.00 | 0.00 | 15 | 1020.5 |
| 20260902003413 | 81 | 214 | 10.4 | 14.8 | 0.00 | 0.00 | 0.00 | 15 | 1020.4 |
| 20260902002909 | 81 | 217 | 10.4 | 14.8 | 0.00 | 0.00 | 0.00 | 15 | 1020.3 |
| 20260902002409 | 81 | 230 | 7.8 | 20.0 | 0.00 | 0.00 | 0.00 | 15 | 1020.4 |
| 20260902001903 | 81 | 222 | 15.6 | 20.0 | 0.00 | 0.00 | 0.00 | 15 | 1020.7 |
| 20260902001358 | 81 | 233 | 7.0 | 15.6 | 0.00 | 0.00 | 0.00 | 15 | 1020.7 |
| 20260902000853 | 81 | 231 | 11.3 | 22.6 | 0.00 | 0.00 | 0.00 | 15 | 1020.7 |
| 20260902000353 | 81 | 221 | 7.8 | 13.9 | 0.00 | 0.00 | 0.00 | 15 | 1020.6 |
| 20260901235848 | 82 | 220 | 8.7 | 14.8 | 0.00 | 0.00 | 0.00 | 15 | 1020.8 |
| 20260901235349 | 82 | 211 | 13.0 | 19.1 | 0.00 | 0.00 | 0.00 | 14 | 1020.8 |
| 20260901234844 | 82 | 219 | 8.7 | 13.0 | 0.00 | 0.00 | 0.00 | 15 | 1020.9 |
| 20260901234343 | 82 | 214 | 11.3 | 13.9 | 0.00 | 0.00 | 0.00 | 15 | 1020.7 |
| 20260901233839 | 82 | 221 | 16.5 | 16.5 | 0.00 | 0.00 | 0.00 | 14 | 1020.6 |
| 20260901233334 | 82 | 222 | 9.6 | 13.9 | 0.00 | 0.00 | 0.00 | 15 | 1020.9 |
| 20260901232830 | 82 | 253 | 5.2 | 18.2 | 0.00 | 0.00 | 0.00 | 15 | 1021.0 |
| 20260901232325 | 82 | 217 | 9.6 | 19.1 | 0.00 | 0.00 | 0.00 | 14 | 1020.9 |
| 20260901231821 | 82 | 218 | 13.0 | 17.4 | 0.00 | 0.00 | 0.00 | 15 | 1020.7 |
| 20260901231317 | 83 | 235 | 13.0 | 16.5 | 0.00 | 0.00 | 0.00 | 14 | 1020.8 |
| 20260901230813 | 83 | 215 | 13.0 | 17.4 | 0.00 | 0.00 | 0.00 | 15 | 1020.9 |
| 20260901230312 | 83 | 210 | 16.5 | 18.2 | 0.00 | 0.00 | 0.00 | 16 | 1021.1 |
| 20260901225808 | 83 | 224 | 13.0 | 16.5 | 0.00 | 0.00 | 0.00 | 15 | 1021.0 |
| 20260901225308 | 84 | 233 | 7.0 | 12.2 | 0.00 | 0.00 | 0.00 | 15 | 1020.9 |
| 20260901224803 | 83 | 213 | 13.0 | 15.6 | 0.00 | 0.00 | 0.00 | 15 | 1020.9 |
| 20260901224259 | 83 | 226 | 11.3 | 16.5 | 0.00 | 0.00 | 0.00 | 16 | 1021.0 |
| 20260901223755 | 84 | 223 | 8.7 | 18.2 | 0.00 | 0.00 | 0.00 | 14 | 1021.1 |
| 20260901223250 | 84 | 219 | 8.7 | 15.6 | 0.00 | 0.00 | 0.00 | 14 | 1021.0 |
| 20260901222746 | 84 | 218 | 11.3 | 15.6 | 0.00 | 0.00 | 0.00 | 15 | 1020.9 |
| 20260901222242 | 83 | 216 | 12.2 | 16.5 | 0.00 | 0.00 | 0.00 | 15 | 1021.0 |
| 20260901221738 | 83 | 230 | 19.1 | 22.6 | 0.00 | 0.00 | 0.00 | 14 | 1021.0 |
| 20260901221233 | 83 | 214 | 10.4 | 20.0 | 0.00 | 0.00 | 0.00 | 15 | 1021.1 |
| 20260901220733 | 83 | 229 | 14.8 | 16.5 | 0.00 | 0.00 | 0.00 | 16 | 1021.0 |
| 20260901220232 | 83 | 235 | 13.9 | 17.4 | 0.00 | 0.00 | 0.00 | 15 | 1021.2 |
| 20260901215731 | 84 | 240 | 8.7 | 15.6 | 0.00 | 0.00 | 0.00 | 15 | 1021.1 |
| 20260901215225 | 83 | 228 | 9.6 | 20.0 | 0.00 | 0.00 | 0.00 | 15 | 1021.2 |
| 20260901214724 | 83 | 232 | 7.0 | 18.2 | 0.00 | 0.00 | 0.00 | 16 | 1021.2 |
| 20260901214218 | 83 | 235 | 10.4 | 19.1 | 0.00 | 0.00 | 0.00 | 16 | 1021.4 |
| 20260901213717 | 84 | 199 | 9.6 | 21.7 | 0.00 | 0.00 | 0.00 | 15 | 1021.5 |
| 20260901213212 | 84 | 228 | 9.6 | 13.9 | 0.00 | 0.00 | 0.00 | 15 | 1021.2 |
| 20260901212712 | 83 | 221 | 11.3 | 18.2 | 0.00 | 0.00 | 0.00 | 15 | 1021.1 |
| 20260901212208 | 83 | 234 | 13.0 | 19.1 | 0.00 | 0.00 | 0.00 | 14 | 1021.4 |
| 20260901211708 | 83 | 214 | 9.6 | 20.0 | 0.00 | 0.00 | 0.00 | 14 | 1021.5 |
| 20260901211205 | 84 | 220 | 9.6 | 19.1 | 0.00 | 0.00 | 0.00 | 13 | 1021.2 |
| 20260901210700 | 83 | 218 | 7.8 | 17.4 | 0.00 | 0.00 | 0.00 | 13 | 1021.4 |
| 20260901210156 | 84 | 216 | 7.0 | 17.4 | 0.00 | 0.00 | 0.00 | 13 | 1021.5 |
| 20260901205651 | 84 | 216 | 7.0 | 17.4 | 0.00 | 0.00 | 0.00 | 13 | 1021.5 |
| 20260901205151 | 83 | 236 | 7.0 | 20.0 | 0.00 | 0.00 | 0.00 | 13 | 1021.5 |
| 20260901204647 | 84 | 211 | 8.7 | 16.5 | 0.00 | 0.00 | 0.00 | 13 | 1021.5 |
| 20260901204142 | 84 | 199 | 5.2 | 14.8 | 0.00 | 0.00 | 0.00 | 13 | 1021.6 |
| 20260901203642 | 84 | 203 | 8.7 | 13.0 | 0.00 | 0.00 | 0.00 | 13 | 1021.6 |
| 20260901203138 | 83 | 217 | 6.1 | 18.2 | 0.00 | 0.00 | 0.00 | 13 | 1021.7 |
| 20260901202637 | 83 | 220 | 13.9 | 17.4 | 0.00 | 0.00 | 0.00 | 13 | 1021.9 |
| 20260901202133 | 83 | 234 | 10.4 | 16.5 | 0.00 | 0.00 | 0.00 | 13 | 1022.0 |
| 20260901201629 | 83 | 226 | 7.8 | 16.5 | 0.00 | 0.00 | 0.00 | 13 | 1022.0 |
| 20260901201127 | 83 | 220 | 10.4 | 17.4 | 0.00 | 0.00 | 0.00 | 12 | 1022.1 |
| 20260901200627 | 83 | 215 | 10.4 | 17.4 | 0.00 | 0.00 | 0.00 | 13 | 1022.1 |
| 20260901200123 | 83 | 228 | 7.8 | 18.2 | 0.00 | 0.00 | 0.00 | 14 | 1022.1 |
| 20260901195621 | 83 | 241 | 7.8 | 14.8 | 0.00 | 0.00 | 0.00 | 14 | 1022.3 |
| 20260901195120 | 83 | 223 | 11.3 | 16.5 | 0.00 | 0.00 | 0.00 | 14 | 1022.2 |
| 20260901194616 | 83 | 242 | 7.8 | 15.6 | 0.00 | 0.00 | 0.00 | 14 | 1022.4 |
| 20260901194111 | 83 | 222 | 7.0 | 17.4 | 0.00 | 0.00 | 0.00 | 14 | 1022.3 |
| 20260901193606 | 83 | 222 | 12.2 | 16.5 | 0.00 | 0.00 | 0.00 | 14 | 1022.4 |
| 20260901193101 | 83 | 248 | 8.7 | 15.6 | 0.00 | 0.00 | 0.00 | 14 | 1022.3 |
| 20260901192556 | 83 | 225 | 7.0 | 12.2 | 0.00 | 0.00 | 0.00 | 14 | 1022.3 |
| 20260901192051 | 84 | 234 | 7.8 | 14.8 | 0.00 | 0.00 | 0.00 | 13 | 1022.6 |
| 20260901191547 | 85 | 228 | 11.3 | 13.0 | 0.00 | 0.00 | 0.00 | 12 | 1022.6 |
| 20260901191043 | 85 | 226 | 6.1 | 12.2 | 0.00 | 0.00 | 0.00 | 13 | 1022.4 |
| 20260901190539 | 84 | 222 | 7.8 | 12.2 | 0.00 | 0.00 | 0.00 | 13 | 1022.6 |
| 20260901190038 | 85 | 210 | 7.0 | 14.8 | 0.00 | 0.00 | 0.00 | 12 | 1022.7 |
| 20260901185536 | 85 | 243 | 3.5 | 10.4 | 0.00 | 0.00 | 0.00 | 12 | 1022.7 |
| 20260901185035 | 85 | 177 | 5.2 | 8.7 | 0.00 | 0.00 | 0.00 | 12 | 1022.6 |
| 20260901184531 | 85 | 183 | 5.2 | 14.8 | 0.00 | 0.00 | 0.00 | 13 | 1022.7 |
| 20260901184026 | 84 | 237 | 5.2 | 11.3 | 0.00 | 0.00 | 0.00 | 13 | 1022.4 |
| 20260901183521 | 84 | 215 | 7.0 | 11.3 | 0.00 | 0.00 | 0.00 | 13 | 1022.7 |
| 20260901183016 | 84 | 221 | 7.8 | 13.0 | 0.00 | 0.00 | 0.00 | 13 | 1022.4 |
| 20260901182513 | 84 | 223 | 6.1 | 7.8 | 0.00 | 0.00 | 0.00 | 12 | 1022.8 |
| 20260901182013 | 83 | 241 | 4.3 | 8.7 | 0.00 | 0.00 | 0.00 | 13 | 1022.8 |
| 20260901181512 | 84 | 237 | 6.1 | 11.3 | 0.00 | 0.00 | 0.00 | 13 | 1022.8 |
| 20260901181012 | 83 | 222 | 7.0 | 13.9 | 0.00 | 0.00 | 0.00 | 12 | 1022.6 |
| 20260901180510 | 83 | 199 | 6.1 | 10.4 | 0.00 | 0.00 | 0.00 | 12 | 1022.6 |
| 20260901180010 | 83 | 188 | 6.1 | 12.2 | 0.00 | 0.00 | 0.00 | 12 | 1022.4 |
| 20260901175505 | 83 | 223 | 7.8 | 11.3 | 0.00 | 0.00 | 0.00 | 12 | 1022.8 |
| 20260901174959 | 83 | 219 | 8.7 | 10.4 | 0.00 | 0.00 | 0.00 | 13 | 1022.7 |
| 20260901174455 | 82 | 169 | 6.1 | 8.7 | 0.00 | 0.00 | 0.00 | 12 | 1022.6 |
| 20260901173950 | 83 | 195 | 3.5 | 13.9 | 0.00 | 0.00 | 0.00 | 12 | 1022.6 |
| 20260901173445 | 82 | 226 | 3.5 | 9.6 | 0.00 | 0.00 | 0.00 | 13 | 1022.4 |
| 20260901172942 | 82 | 201 | 7.8 | 13.0 | 0.00 | 0.00 | 0.00 | 13 | 1022.4 |
| 20260901172437 | 81 | 241 | 7.8 | 13.9 | 0.00 | 0.00 | 0.00 | 13 | 1022.4 |
| 20260901171934 | 82 | 214 | 7.0 | 13.0 | 0.00 | 0.00 | 0.00 | 13 | 1022.3 |
| 20260901171433 | 81 | 213 | 7.0 | 14.8 | 0.00 | 0.00 | 0.00 | 14 | 1022.4 |
| 20260901170932 | 81 | 223 | 7.8 | 8.7 | 0.00 | 0.00 | 0.00 | 14 | 1022.4 |
| 20260901170427 | 81 | 184 | 7.0 | 11.3 | 0.00 | 0.00 | 0.00 | 14 | 1022.6 |
| 20260901165927 | 80 | 185 | 7.8 | 11.3 | 0.00 | 0.00 | 0.00 | 14 | 1022.6 |
| 20260901165422 | 81 | 183 | 8.7 | 10.4 | 0.00 | 0.00 | 0.00 | 14 | 1022.4 |
| 20260901164918 | 80 | 163 | 6.1 | 11.3 | 0.00 | 0.00 | 0.00 | 14 | 1022.3 |
| 20260901164418 | 80 | 177 | 8.7 | 11.3 | 0.00 | 0.00 | 0.00 | 14 | 1022.4 |
| 20260901163913 | 80 | 177 | 5.2 | 7.8 | 0.00 | 0.00 | 0.00 | 14 | 1022.4 |
| 20260901163408 | 80 | 212 | 6.1 | 9.6 | 0.00 | 0.00 | 0.00 | 15 | 1022.4 |
| 20260901162902 | 78 | 217 | 6.1 | 7.8 | 0.00 | 0.00 | 0.00 | 15 | 1022.2 |
| 20260901162402 | 78 | 246 | 6.1 | 8.7 | 0.00 | 0.00 | 0.00 | 15 | 1022.6 |
| 20260901161902 | 77 | 274 | 3.5 | 5.2 | 0.00 | 0.00 | 0.00 | 16 | 1022.7 |
| 20260901161401 | 76 | 315 | 2.6 | 2.6 | 0.00 | 0.00 | 0.00 | 18 | 1022.4 |
| 20260901160856 | 74 | 197 | 2.6 | 3.5 | 0.00 | 0.00 | 0.00 | 21 | 1022.6 |
| 20260901160352 | 74 | 275 | 1.7 | 2.6 | 0.00 | 0.00 | 0.00 | 21 | 1022.7 |
| 20260901155851 | 74 | 221 | 1.7 | 2.6 | 0.00 | 0.00 | 0.00 | 22 | 1022.4 |
| 20260901155346 | 74 | 316 | 2.6 | 2.6 | 0.00 | 0.00 | 0.00 | 22 | 1022.8 |
| 20260901154843 | 73 | 266 | 1.7 | 3.5 | 0.00 | 0.00 | 0.00 | 22 | 1022.7 |
| 20260901154342 | 72 | 254 | 0.0 | 1.7 | 0.00 | 0.00 | 0.00 | 23 | 1022.8 |
| 20260901153837 | 72 | 295 | 0.9 | 2.6 | 0.00 | 0.00 | 0.00 | 23 | 1022.7 |
| 20260901153332 | 71 | 34 | 1.7 | 2.6 | 0.00 | 0.00 | 0.00 | 23 | 1022.4 |
| 20260901152830 | 70 | 235 | 0.0 | 3.5 | 0.00 | 0.00 | 0.00 | 23 | 1022.7 |
| 20260901152330 | 71 | 293 | 1.7 | 2.6 | 0.00 | 0.00 | 0.00 | 23 | 1022.4 |
| 20260901151825 | 72 | 348 | 2.6 | 5.2 | 0.00 | 0.00 | 0.00 | 22 | 1022.4 |
| 20260901151320 | 71 | 340 | 0.0 | 1.7 | 0.00 | 0.00 | 0.00 | 22 | 1022.6 |
| 20260901150819 | 71 | 121 | 2.6 | 2.6 | 0.00 | 0.00 | 0.00 | 22 | 1022.3 |
| 20260901150318 | 71 | 185 | 2.6 | 2.6 | 0.00 | 0.00 | 0.00 | 22 | 1022.6 |
| 20260901145816 | 70 | 210 | 0.0 | 1.7 | 0.00 | 0.00 | 0.00 | 22 | 1022.4 |
| 20260901145315 | 71 | 185 | 0.9 | 1.7 | 0.00 | 0.00 | 0.00 | 22 | 1022.2 |
| 20260901144811 | 69 | 226 | 0.9 | 1.7 | 0.00 | 0.00 | 0.00 | 23 | 1022.2 |
| 20260901144306 | 68 | 173 | 1.7 | 2.6 | 0.00 | 0.00 | 0.00 | 24 | 1022.0 |
| 20260901143802 | 67 | 215 | 1.7 | 2.6 | 0.00 | 0.00 | 0.00 | 25 | 1022.3 |
| 20260901143258 | 66 | 112 | 1.7 | 3.5 | 0.00 | 0.00 | 0.00 | 26 | 1022.0 |
| 20260901142754 | 65 | 189 | 2.6 | 3.5 | 0.00 | 0.00 | 0.00 | 30 | 1021.9 |
| 20260901142253 | 64 | 205 | 5.2 | 5.2 | 0.00 | 0.00 | 0.00 | 34 | 1022.0 |
| 20260901141748 | 64 | 211 | 4.3 | 5.2 | 0.00 | 0.00 | 0.00 | 34 | 1022.2 |
| 20260901141248 | 64 | 219 | 6.1 | 8.7 | 0.00 | 0.00 | 0.00 | 34 | 1022.0 |
| 20260901140747 | 64 | 234 | 5.2 | 7.0 | 0.00 | 0.00 | 0.00 | 33 | 1022.0 |
| 20260901140246 | 63 | 227 | 4.3 | 7.0 | 0.00 | 0.00 | 0.00 | 33 | 1021.7 |
| 20260901135741 | 63 | 207 | 1.7 | 3.5 | 0.00 | 0.00 | 0.00 | 31 | 1021.8 |
| 20260901135241 | 63 | 150 | 1.7 | 2.6 | 0.00 | 0.00 | 0.00 | 30 | 1021.8 |
| 20260901134737 | 62 | 221 | 4.3 | 6.1 | 0.00 | 0.00 | 0.00 | 32 | 1021.9 |
| 20260901134237 | 62 | 231 | 5.2 | 7.0 | 0.00 | 0.00 | 0.00 | 32 | 1021.9 |
| 20260901133737 | 61 | 223 | 4.3 | 8.7 | 0.00 | 0.00 | 0.00 | 33 | 1021.7 |
| 20260901133236 | 61 | 210 | 4.3 | 6.1 | 0.00 | 0.00 | 0.00 | 32 | 1021.8 |
| 20260901132735 | 61 | 202 | 3.5 | 6.1 | 0.00 | 0.00 | 0.00 | 32 | 1021.5 |
| 20260901132230 | 61 | 235 | 6.1 | 6.1 | 0.00 | 0.00 | 0.00 | 31 | 1021.9 |
| 20260901131725 | 61 | 241 | 3.5 | 4.3 | 0.00 | 0.00 | 0.00 | 31 | 1021.5 |
| 20260901131224 | 61 | 233 | 2.6 | 3.5 | 0.00 | 0.00 | 0.00 | 30 | 1021.6 |
| 20260901130720 | 61 | 209 | 3.5 | 5.2 | 0.00 | 0.00 | 0.00 | 30 | 1021.5 |
| 20260901130218 | 61 | 231 | 3.5 | 5.2 | 0.00 | 0.00 | 0.00 | 30 | 1021.4 |
| 20260901125716 | 62 | 221 | 1.7 | 4.3 | 0.00 | 0.00 | 0.00 | 30 | 1021.5 |
| 20260901125212 | 62 | 230 | 3.5 | 5.2 | 0.00 | 0.00 | 0.00 | 29 | 1021.5 |
| 20260901124706 | 62 | 241 | 4.3 | 5.2 | 0.00 | 0.00 | 0.00 | 28 | 1021.2 |
| 20260901124207 | 63 | 235 | 3.5 | 5.2 | 0.00 | 0.00 | 0.00 | 28 | 1021.5 |
| 20260901123706 | 63 | 247 | 5.2 | 7.8 | 0.00 | 0.00 | 0.00 | 27 | 1021.4 |
| 20260901123201 | 63 | 236 | 3.5 | 7.0 | 0.00 | 0.00 | 0.00 | 27 | 1021.5 |
| 20260901122700 | 63 | 241 | 3.5 | 6.1 | 0.00 | 0.00 | 0.00 | 27 | 1021.4 |
| 20260901122155 | 63 | 242 | 5.2 | 5.2 | 0.00 | 0.00 | 0.00 | 27 | 1021.4 |
| 20260901121649 | 62 | 237 | 2.6 | 7.0 | 0.00 | 0.00 | 0.00 | 27 | 1021.1 |
| 20260901121145 | 62 | 226 | 5.2 | 6.1 | 0.00 | 0.00 | 0.00 | 27 | 1021.2 |
| 20260901120644 | 62 | 230 | 2.6 | 5.2 | 0.00 | 0.00 | 0.00 | 27 | 1021.1 |
| 20260901120139 | 62 | 233 | 2.6 | 3.5 | 0.00 | 0.00 | 0.00 | 27 | 1021.0 |
| 20260901115635 | 62 | 226 | 2.6 | 4.3 | 0.00 | 0.00 | 0.00 | 28 | 1020.9 |
| 20260901115131 | 62 | 217 | 3.5 | 4.3 | 0.00 | 0.00 | 0.00 | 28 | 1021.2 |
| 20260901114627 | 62 | 234 | 3.5 | 4.3 | 0.00 | 0.00 | 0.00 | 29 | 1021.1 |
| 20260901114126 | 62 | 227 | 2.6 | 5.2 | 0.00 | 0.00 | 0.00 | 29 | 1021.2 |
| 20260901113625 | 62 | 224 | 3.5 | 4.3 | 0.00 | 0.00 | 0.00 | 29 | 1020.9 |
| 20260901113121 | 62 | 228 | 3.5 | 6.1 | 0.00 | 0.00 | 0.00 | 29 | 1021.0 |
| 20260901112621 | 62 | 239 | 4.3 | 5.2 | 0.00 | 0.00 | 0.00 | 29 | 1021.4 |
| 20260901112115 | 62 | 246 | 4.3 | 4.3 | 0.00 | 0.00 | 0.00 | 29 | 1021.0 |
| 20260901111614 | 62 | 245 | 3.5 | 3.5 | 0.00 | 0.00 | 0.00 | 29 | 1021.1 |
| 20260901111113 | 62 | 234 | 4.3 | 6.1 | 0.00 | 0.00 | 0.00 | 29 | 1021.0 |
| 20260901110609 | 63 | 245 | 2.6 | 6.1 | 0.00 | 0.00 | 0.00 | 30 | 1021.1 |
| 20260901110104 | 63 | 240 | 4.3 | 5.2 | 0.00 | 0.00 | 0.00 | 30 | 1021.2 |
| 20260901105601 | 62 | 234 | 4.3 | 5.2 | 0.00 | 0.00 | 0.00 | 30 | 1021.0 |
| 20260901105100 | 62 | 218 | 1.7 | 4.3 | 0.00 | 0.00 | 0.00 | 31 | 1021.2 |
| 20260901104556 | 62 | 238 | 2.6 | 4.3 | 0.00 | 0.00 | 0.00 | 32 | 1021.1 |